{"data":{"norad_id":65165,"epoch":"2026-05-25T05:33:39.053664Z","epoch_age_seconds":58168,"freshness":"FRESH","line1":"1 65165U 25174B   26145.23170201  .00000006  00000+0 -19243-4 0  9995","line2":"2 65165  86.4919 259.6552 0001872  98.0083 262.1263 13.24404304 37751","mean_motion":13.24404304,"eccentricity":0.0001872,"inclination_deg":86.4919,"raan_deg":259.6552,"arg_perigee_deg":98.0083,"mean_anomaly_deg":262.1263,"bstar":-1.9243e-5,"rev_number":3775,"period_min":108.72812747972,"perigee_km":1166.5311953498,"apogee_km":1169.3564480094,"semimajor_km":7546.0808216796,"source":"CELESTRAK","updated_at":"2026-05-25T13:38:05.172817Z"}}